Toms River, NJ

2:46 AM EDT on October 22, 2019 (GMT -0400)
Miller

Weather History for KMJX - August, 2019

Change the Weather History Date:

Saturday, August 3, 2019

  Actual Average Record
Temperature  
Mean Temperature 73 °F -  
Max Temperature 86 °F 86 °F 100 °F (1975)
Min Temperature 62 °F 64 °F 53 °F (1985)
Cooling Degree Days 8    
Growing Degree Days 23 (Base 50)    
Moisture  
Dew Point 77 °F    
Average Humidity 88    
Maximum Humidity 100    
Minimum Humidity 69    
Precipitation  
Precipitation 0.00 in - - ()
Sea Level Pressure  
Sea Level Pressure 30.04 in    
Wind  
Wind Speed 2 mph (SSE)    
Max Wind Speed 10 mph    
Max Gust Speed -    
Visibility 8 miles    
Events Fog , Rain    
Averages and records for this station are not official NWS values.
T = Trace of Precipitation, MM = Missing Value Source: NWS Daily Summary

Daily Weather History Graph

Daily Weather History Graph

Search for Another Location

Airport or City:

Astronomy

Aug. 03, 2019 Rise Set
Actual Time 5:57 AM EDT 8:08 PM EDT
Civil Twilight 5:27 AM EDT 8:38 PM EDT
Nautical Twilight 4:50 AM EDT 9:15 PM EDT
Astronomical Twilight 4:09 AM EDT 9:55 PM EDT
Moon 8:47 AM EDT (8/3) 10:12 PM EDT (8/3)
Length of Visible Light 15h 11m
Length of Day
14h 11m
Waxing Crescent, 10% of the Moon is Illuminated
Aug 3
Waxing Crescent
Aug 7
First Quarter
Aug 15
Full
Aug 23
Last Quarter
Aug 30
New

Hourly Weather History & Observations

Time (EDT) Temp. Heat Index Dew Point Humidity Pressure Visibility Wind Dir Wind Speed Gust Speed Precip Events Conditions
12:56 AM 64.0 °F - - N/A% 30.11 in 10.0 mi Calm Calm - N/A   Clear
1:25 AM 62.6 °F - - N/A% 30.10 in 10.0 mi Calm Calm - N/A   Scattered Clouds
1:34 AM 62.6 °F - - N/A% 30.10 in 2.5 mi Calm Calm - N/A   Mostly Cloudy
1:37 AM 62.6 °F - - N/A% 30.10 in 1.0 mi Calm Calm - N/A   Mostly Cloudy
1:44 AM 62.6 °F - - N/A% 30.10 in 0.5 mi Calm Calm - N/A Fog Fog
1:56 AM - - - N/A% 30.10 in 0.8 mi Calm Calm - N/A   Mostly Cloudy
1:59 AM - - - N/A% 30.10 in 1.5 mi Calm Calm - N/A   Mostly Cloudy
2:02 AM - - - N/A% 30.10 in 3.0 mi Calm Calm - N/A   Mostly Cloudy
2:12 AM - - - N/A% 30.10 in 10.0 mi Calm Calm - N/A   Scattered Clouds
2:56 AM 63.0 °F - - N/A% 30.10 in 10.0 mi Calm Calm - N/A   Clear
3:56 AM 62.1 °F - - N/A% 30.09 in 10.0 mi Calm Calm - N/A   Clear
4:13 AM 62.6 °F - - N/A% 30.07 in 8.0 mi Calm Calm - N/A   Partly Cloudy
4:56 AM 63.0 °F - - N/A% - 10.0 mi Calm Calm - N/A   Mostly Cloudy
5:56 AM 63.0 °F - - N/A% 30.09 in 10.0 mi Calm Calm - N/A   Overcast
6:33 AM 64.4 °F - - N/A% 30.07 in 8.0 mi Calm Calm - N/A   Partly Cloudy
6:56 AM 64.0 °F - - N/A% 30.09 in 7.0 mi Calm Calm - N/A   Mostly Cloudy
7:30 AM 69.8 °F - - N/A% 30.07 in 9.0 mi Calm Calm - N/A   Scattered Clouds
7:42 AM 69.8 °F - - N/A% 30.07 in 6.0 mi North 3.5 mph - N/A   Haze
7:56 AM - - - N/A% 30.07 in 8.0 mi Calm Calm - N/A   Scattered Clouds
8:56 AM 80.1 °F 87.4 °F 80.1 °F 100% 30.08 in 10.0 mi Calm Calm - N/A   Mostly Cloudy
9:05 AM 78.8 °F - 78.8 °F 100% 30.07 in 10.0 mi NNE 3.5 mph - N/A   Mostly Cloudy
9:45 AM 80.6 °F 88.1 °F 78.8 °F 94% 30.06 in 10.0 mi WNW 5.8 mph - N/A   Overcast
9:56 AM 77.0 °F - 77.0 °F 100% 30.07 in 10.0 mi NNW 4.6 mph - N/A   Overcast
10:10 AM 78.8 °F - 78.8 °F 100% 30.06 in 10.0 mi WNW 3.5 mph - N/A   Scattered Clouds
10:56 AM 80.1 °F 85.8 °F 77.0 °F 90% 30.06 in 10.0 mi ENE 5.8 mph - N/A   Clear
11:56 AM 73.9 °F - 73.9 °F 100% 30.06 in 4.0 mi SE 9.2 mph - N/A Rain Heavy Rain
12:56 PM 79.0 °F - - N/A% 30.04 in 10.0 mi SSE 5.8 mph - N/A   Scattered Clouds
1:56 PM 82.9 °F 94.8 °F 80.1 °F 91% 30.00 in 10.0 mi SE 3.5 mph - N/A   Scattered Clouds
2:56 PM 84.0 °F 94.8 °F 78.1 °F 82% 30.00 in 10.0 mi SSE 9.2 mph - N/A   Clear
3:21 PM 84.2 °F 94.1 °F 77.0 °F 79% 29.98 in 10.0 mi South 4.6 mph - N/A   Mostly Cloudy
3:48 PM 84.2 °F 92.3 °F 75.2 °F 74% 29.96 in 10.0 mi SSW 6.9 mph - N/A   Scattered Clouds
3:56 PM 84.9 °F 92.1 °F 73.9 °F 69% 29.97 in 10.0 mi South 6.9 mph - N/A   Scattered Clouds
4:56 PM 84.0 °F 91.9 °F 75.0 °F 74% 29.96 in 10.0 mi SSE 10.4 mph - N/A   Partly Cloudy
5:56 PM 82.9 °F 89.4 °F 73.9 °F 74% 29.95 in 10.0 mi South 9.2 mph - N/A   Clear
6:56 PM 82.0 °F 87.4 °F 73.0 °F 74% 29.95 in 10.0 mi South 4.6 mph - N/A   Clear
7:56 PM 78.1 °F - 78.1 °F 100% 29.95 in 10.0 mi SSE 4.6 mph - N/A   Clear
8:56 PM 75.0 °F - - N/A% 29.97 in 10.0 mi South 3.5 mph - N/A   Clear
9:56 PM 73.9 °F - - N/A% 29.97 in 10.0 mi South 3.5 mph - N/A   Clear
10:56 PM - - - N/A% 29.96 in 10.0 mi Calm Calm - N/A   Partly Cloudy
11:56 PM - - - N/A% 29.95 in 10.0 mi Calm Calm - N/A   Clear